SAS302 ENVA-EKCH

Flight info

Callsign SAS302
Flight time N/A
Altitude 37000
Route EVNEN DCT ABUNO DCT TOPLA L996 ERNOV
Aircraft B763/H-SDE3FGHIM3RWXY/LB1

Departure

Time 2026-05-04 17:16
Airport Trondheim Airport, Værnes (ENVA)

Arrival

Time N/A
Airport Copenhagen Kastrup Airport (EKCH)
Time Latitude Longitude Altitude Speed Heading
2026-05-04 16:52 63.45510 10.91364 32 ft 0 kts 180°
2026-05-04 17:08 63.45518 10.91365 32 ft 2 kts 180°
2026-05-04 17:09 63.45533 10.91364 33 ft 2 kts 179°
2026-05-04 17:09 63.45548 10.91364 33 ft 2 kts 179°
2026-05-04 17:09 63.45558 10.91364 33 ft 1 kts 179°
2026-05-04 17:10 63.45585 10.91343 33 ft 2 kts 136°
2026-05-04 17:10 63.45598 10.91276 32 ft 0 kts 89°
2026-05-04 17:12 63.45598 10.91298 31 ft 4 kts 90°
2026-05-04 17:13 63.45595 10.92120 38 ft 31 kts 90°
2026-05-04 17:14 63.45593 10.93734 52 ft 20 kts 82°
2026-05-04 17:14 63.45653 10.93964 54 ft 16 kts 44°
2026-05-04 17:14 63.45760 10.94041 55 ft 8 kts 267°
2026-05-04 17:15 63.45759 10.94022 55 ft 0 kts 265°
2026-05-04 17:15 63.45758 10.92963 44 ft 103 kts 270°
2026-05-04 17:16 63.45771 10.88487 1280 ft 160 kts 271°
2026-05-04 17:16 63.45783 10.80015 2682 ft 210 kts 272°
2026-05-04 17:17 63.45782 10.76834 3642 ft 208 kts 273°
2026-05-04 17:17 63.45786 10.67025 6150 ft 219 kts 273°
2026-05-04 17:18 63.45785 10.63661 7023 ft 221 kts 273°
2026-05-04 17:18 63.45697 10.56722 8492 ft 240 kts 259°
2026-05-04 17:19 63.43260 10.51229 9933 ft 278 kts 199°
2026-05-04 17:19 63.39332 10.52703 11023 ft 326 kts 150°
2026-05-04 17:20 63.36054 10.60798 11638 ft 382 kts 124°
2026-05-04 17:20 63.32757 10.70183 13527 ft 393 kts 129°
2026-05-04 17:20 63.31090 10.74991 14520 ft 397 kts 129°
2026-05-04 17:21 63.27709 10.84799 16324 ft 407 kts 129°
2026-05-04 17:21 63.24240 10.94867 18012 ft 417 kts 129°
2026-05-04 17:22 63.22476 10.99973 18832 ft 423 kts 130°
2026-05-04 17:22 63.20682 11.05158 19600 ft 428 kts 130°
2026-05-04 17:23 63.15138 11.21101 21665 ft 446 kts 130°
2026-05-04 17:23 63.13231 11.26560 22218 ft 454 kts 130°
2026-05-04 17:23 63.09339 11.37658 23394 ft 464 kts 131°
2026-05-04 17:24 63.07361 11.43279 23979 ft 468 kts 131°
2026-05-04 17:24 63.00606 11.58836 25239 ft 472 kts 149°
2026-05-04 17:25 62.97802 11.62457 25678 ft 468 kts 159°
2026-05-04 17:25 62.91649 11.66471 26411 ft 461 kts 178°
2026-05-04 17:26 62.85276 11.68556 27098 ft 468 kts 178°
2026-05-04 17:26 62.75563 11.71576 28065 ft 478 kts 179°
2026-05-04 17:27 62.68991 11.73582 28705 ft 483 kts 179°
2026-05-04 17:27 62.62352 11.75592 29363 ft 484 kts 179°
2026-05-04 17:28 62.55719 11.77593 30153 ft 482 kts 179°
2026-05-04 17:29 62.45805 11.80564 31328 ft 479 kts 180°
2026-05-04 17:29 62.35977 11.83485 32382 ft 477 kts 180°
2026-05-04 17:30 62.26248 11.86359 33487 ft 473 kts 179°
2026-05-04 17:31 62.19762 11.88267 34246 ft 471 kts 179°
2026-05-04 17:31 62.10055 11.91105 35197 ft 470 kts 179°
2026-05-04 17:32 62.03593 11.92982 35703 ft 472 kts 179°
2026-05-04 17:33 61.93896 11.94735 36336 ft 469 kts 185°
2026-05-04 17:33 61.90655 11.94984 36610 ft 467 kts 185°
2026-05-04 17:34 61.77748 11.96127 36593 ft 465 kts 185°
2026-05-04 17:35 61.61681 11.97616 36608 ft 463 kts 185°
2026-05-04 17:36 61.55260 11.98208 36586 ft 464 kts 185°
2026-05-04 17:36 61.48843 11.98798 36598 ft 464 kts 185°
2026-05-04 17:37 61.42438 11.99386 36580 ft 463 kts 185°
2026-05-04 17:37 61.36028 11.99968 36605 ft 464 kts 185°
2026-05-04 17:38 61.29604 12.00555 36603 ft 464 kts 186°
2026-05-04 17:38 61.23214 12.01131 36598 ft 461 kts 185°
2026-05-04 17:39 61.13611 12.01993 36604 ft 464 kts 185°
2026-05-04 17:39 61.07200 12.02568 36588 ft 463 kts 185°
2026-05-04 17:40 61.00790 12.03140 36594 ft 462 kts 186°
2026-05-04 17:40 60.94411 12.03705 36588 ft 462 kts 186°
2026-05-04 17:41 60.88016 12.04271 36592 ft 463 kts 186°
2026-05-04 17:41 60.81598 12.04838 36594 ft 462 kts 185°
2026-05-04 17:42 60.75211 12.05396 36602 ft 463 kts 185°
2026-05-04 17:42 60.68789 12.05957 36599 ft 464 kts 185°
2026-05-04 17:43 60.62362 12.06517 36599 ft 464 kts 185°
2026-05-04 17:43 60.55940 12.07074 36601 ft 466 kts 185°
2026-05-04 17:44 60.49492 12.07631 36613 ft 466 kts 186°
2026-05-04 17:44 60.43060 12.08186 36614 ft 463 kts 185°
2026-05-04 17:45 60.36657 12.08732 36628 ft 464 kts 185°
2026-05-04 17:45 60.30235 12.09280 36635 ft 466 kts 185°
2026-05-04 17:46 60.23783 12.09829 36624 ft 465 kts 185°
2026-05-04 17:46 60.17356 12.10373 36626 ft 465 kts 185°
2026-05-04 17:47 60.10925 12.10915 36634 ft 466 kts 185°
2026-05-04 17:47 60.04457 12.11457 36630 ft 468 kts 185°
2026-05-04 17:48 59.97999 12.12000 36636 ft 466 kts 185°
2026-05-04 17:48 59.91568 12.12536 36651 ft 465 kts 185°
2026-05-04 17:49 59.85112 12.13071 36649 ft 466 kts 185°
2026-05-04 17:49 59.78650 12.13607 36668 ft 466 kts 185°
2026-05-04 17:50 59.72211 12.14137 36686 ft 465 kts 185°
2026-05-04 17:50 59.68996 12.14402 36511 ft 464 kts 185°
2026-05-04 17:50 59.65802 12.14664 36762 ft 465 kts 185°
2026-05-04 17:51 59.62566 12.14926 36583 ft 465 kts 185°
2026-05-04 17:51 59.59344 12.15191 36686 ft 466 kts 185°
2026-05-04 17:51 59.52880 12.15717 36670 ft 466 kts 184°
2026-05-04 17:52 59.46446 12.16239 36704 ft 465 kts 185°
2026-05-04 17:52 59.40011 12.16759 36708 ft 465 kts 184°
2026-05-04 17:53 59.33579 12.17278 36698 ft 464 kts 185°
2026-05-04 17:53 59.27147 12.17792 36715 ft 466 kts 185°
2026-05-04 17:54 59.20704 12.18308 36735 ft 466 kts 185°
2026-05-04 17:54 59.14261 12.18821 36713 ft 465 kts 184°
2026-05-04 17:55 59.07824 12.19331 36727 ft 465 kts 184°
2026-05-04 17:55 59.01390 12.19840 36738 ft 465 kts 184°
2026-05-04 17:56 58.94966 12.20346 36716 ft 463 kts 185°
2026-05-04 17:56 58.88624 12.20841 36740 ft 464 kts 184°
2026-05-04 17:57 58.82083 12.21352 36729 ft 467 kts 184°
2026-05-04 17:57 58.75624 12.21857 36737 ft 465 kts 184°
2026-05-04 17:58 58.69187 12.22354 36747 ft 467 kts 184°
2026-05-04 17:58 58.62719 12.22854 36758 ft 468 kts 184°
2026-05-04 17:59 58.56246 12.23354 36767 ft 466 kts 184°
2026-05-04 18:00 58.46566 12.24095 36803 ft 467 kts 184°
2026-05-04 18:00 58.40104 12.24588 36805 ft 466 kts 184°
2026-05-04 18:01 58.33643 12.25079 36814 ft 467 kts 184°
2026-05-04 18:01 58.27181 12.25568 36823 ft 467 kts 184°
2026-05-04 18:02 58.17459 12.26301 36829 ft 469 kts 184°
2026-05-04 18:02 58.10973 12.26788 36840 ft 468 kts 184°
2026-05-04 18:03 58.04500 12.27272 36836 ft 468 kts 184°
2026-05-04 18:03 57.98026 12.27754 36832 ft 468 kts 184°
2026-05-04 18:04 57.91559 12.28234 36832 ft 468 kts 183°
2026-05-04 18:04 57.85063 12.28715 36169 ft 464 kts 184°
2026-05-04 18:05 57.81905 12.28957 35829 ft 450 kts 184°
2026-05-04 18:05 57.78815 12.29185 35470 ft 446 kts 184°
2026-05-04 18:05 57.75703 12.29404 35078 ft 454 kts 184°
2026-05-04 18:05 57.72561 12.29634 34579 ft 453 kts 184°
2026-05-04 18:06 57.66312 12.30091 33441 ft 452 kts 184°
2026-05-04 18:06 57.63174 12.30317 32914 ft 457 kts 184°
2026-05-04 18:06 57.60010 12.30548 32248 ft 457 kts 184°
2026-05-04 18:07 57.56861 12.30780 31648 ft 455 kts 184°
2026-05-04 18:07 57.53705 12.31007 31044 ft 458 kts 184°
2026-05-04 18:07 57.50540 12.31236 30433 ft 459 kts 183°
2026-05-04 18:07 57.47358 12.31467 29782 ft 460 kts 184°
2026-05-04 18:08 57.44173 12.31697 29147 ft 461 kts 183°
2026-05-04 18:08 57.41014 12.31929 28545 ft 454 kts 183°
2026-05-04 18:08 57.37874 12.32154 28067 ft 455 kts 183°
2026-05-04 18:08 57.34728 12.32378 27509 ft 453 kts 183°
2026-05-04 18:09 57.28646 12.32826 26801 ft 420 kts 183°
2026-05-04 18:09 57.23168 12.33226 26307 ft 381 kts 184°
2026-05-04 18:10 57.20543 12.33404 25459 ft 379 kts 184°
2026-05-04 18:10 57.17948 12.33587 24826 ft 370 kts 184°
2026-05-04 18:10 57.15426 12.33768 24425 ft 360 kts 184°
2026-05-04 18:10 57.12902 12.34077 24142 ft 374 kts 179°
2026-05-04 18:11 57.10298 12.34726 23733 ft 382 kts 178°
2026-05-04 18:11 57.07682 12.35367 23308 ft 380 kts 178°
2026-05-04 18:11 57.05080 12.36011 22885 ft 377 kts 178°
2026-05-04 18:11 57.02501 12.36648 22467 ft 374 kts 178°
2026-05-04 18:12 56.99943 12.37282 22057 ft 371 kts 178°
2026-05-04 18:12 56.97403 12.37911 21646 ft 368 kts 178°
2026-05-04 18:12 56.94885 12.38534 21244 ft 366 kts 178°
2026-05-04 18:12 56.92384 12.39151 20847 ft 363 kts 178°
2026-05-04 18:13 56.89925 12.39757 20457 ft 360 kts 178°
2026-05-04 18:13 56.87431 12.40371 20058 ft 357 kts 178°
2026-05-04 18:13 56.82549 12.41571 19272 ft 352 kts 178°
2026-05-04 18:14 56.80142 12.42160 18888 ft 350 kts 178°
2026-05-04 18:14 56.77738 12.42748 18522 ft 350 kts 178°
2026-05-04 18:14 56.75339 12.43335 18143 ft 348 kts 178°
2026-05-04 18:15 56.70596 12.44494 17388 ft 342 kts 178°
2026-05-04 18:15 56.65927 12.45632 16659 ft 337 kts 178°
2026-05-04 18:15 56.63623 12.46191 16285 ft 335 kts 178°
2026-05-04 18:16 56.61333 12.46747 15928 ft 332 kts 178°
2026-05-04 18:16 56.59056 12.47300 15568 ft 330 kts 179°
2026-05-04 18:16 56.56798 12.47846 15208 ft 329 kts 178°
2026-05-04 18:17 56.52311 12.48931 14505 ft 325 kts 178°
2026-05-04 18:17 56.50090 12.49466 14168 ft 322 kts 178°
2026-05-04 18:17 56.45686 12.50527 13489 ft 319 kts 178°
2026-05-04 18:18 56.43502 12.51051 13135 ft 318 kts 178°
2026-05-04 18:18 56.41327 12.51574 12822 ft 315 kts 178°
2026-05-04 18:18 56.39174 12.52091 12667 ft 311 kts 178°
2026-05-04 18:18 56.37046 12.52600 12523 ft 306 kts 178°
2026-05-04 18:19 56.32889 12.53592 12172 ft 300 kts 178°
2026-05-04 18:19 56.30823 12.54082 12004 ft 300 kts 178°
2026-05-04 18:19 56.28757 12.54573 11855 ft 300 kts 178°
2026-05-04 18:20 56.26695 12.55064 11703 ft 300 kts 178°
2026-05-04 18:20 56.24637 12.55552 11555 ft 299 kts 178°
2026-05-04 18:20 56.22588 12.56038 11380 ft 298 kts 178°
2026-05-04 18:20 56.20544 12.56522 11209 ft 297 kts 177°
2026-05-04 18:21 56.18507 12.57004 11045 ft 296 kts 177°
2026-05-04 18:21 56.16487 12.57021 10894 ft 287 kts 196°
2026-05-04 18:21 56.14571 12.56187 10831 ft 284 kts 199°
2026-05-04 18:21 56.12656 12.55341 10762 ft 285 kts 199°
2026-05-04 18:22 56.10738 12.54469 10705 ft 285 kts 199°
2026-05-04 18:22 56.08816 12.53583 10640 ft 285 kts 199°
2026-05-04 18:22 56.06892 12.52689 10420 ft 288 kts 199°
2026-05-04 18:22 56.04969 12.51795 10163 ft 285 kts 199°
2026-05-04 18:23 56.03060 12.50905 9788 ft 285 kts 199°
2026-05-04 18:23 56.01153 12.50015 9418 ft 284 kts 199°
2026-05-04 18:23 55.99243 12.49124 9045 ft 284 kts 199°
2026-05-04 18:23 55.97339 12.48237 8673 ft 284 kts 199°
2026-05-04 18:24 55.95436 12.47351 8300 ft 284 kts 198°
2026-05-04 18:24 55.93484 12.46851 7915 ft 289 kts 179°
2026-05-04 18:24 55.91518 12.47661 7574 ft 293 kts 165°
2026-05-04 18:24 55.89598 12.48807 7202 ft 293 kts 165°
2026-05-04 18:25 55.87665 12.49947 6788 ft 291 kts 165°
2026-05-04 18:25 55.85783 12.51045 6379 ft 281 kts 165°
2026-05-04 18:25 55.83961 12.52104 6013 ft 272 kts 165°
2026-05-04 18:25 55.82196 12.53128 5622 ft 264 kts 165°
2026-05-04 18:26 55.80462 12.54129 5291 ft 262 kts 165°
2026-05-04 18:26 55.78724 12.55133 4915 ft 265 kts 162°
2026-05-04 18:26 55.77149 12.56840 4523 ft 272 kts 135°
2026-05-04 18:26 55.76186 12.59680 4224 ft 270 kts 104°
2026-05-04 18:27 55.76094 12.62916 4021 ft 260 kts 73°
2026-05-04 18:27 55.76802 12.65742 4022 ft 247 kts 56°
2026-05-04 18:27 55.77702 12.68362 3998 ft 251 kts 55°
2026-05-04 18:27 55.78612 12.71025 3987 ft 253 kts 56°
2026-05-04 18:28 55.79523 12.73680 3998 ft 252 kts 55°
2026-05-04 18:28 55.80438 12.76337 3998 ft 253 kts 55°
2026-05-04 18:28 55.81283 12.79077 3984 ft 255 kts 68°
2026-05-04 18:28 55.81458 12.82196 4006 ft 259 kts 99°
2026-05-04 18:29 55.80846 12.85213 4017 ft 262 kts 115°
2026-05-04 18:29 55.80058 12.88131 3984 ft 261 kts 118°
2026-05-04 18:29 55.78936 12.90607 3993 ft 258 kts 146°
2026-05-04 18:29 55.77301 12.91659 4014 ft 251 kts 184°
2026-05-04 18:30 55.74825 12.88642 3510 ft 215 kts 259°
2026-05-04 18:30 55.74553 12.86139 3226 ft 201 kts 255°
2026-05-04 18:30 55.73734 12.84181 2979 ft 202 kts 225°
2026-05-04 18:31 55.72665 12.82533 2719 ft 206 kts 226°
2026-05-04 18:31 55.71632 12.80892 2469 ft 193 kts 226°
2026-05-04 18:31 55.70670 12.79387 2232 ft 178 kts 226°
2026-05-04 18:31 55.69777 12.77991 1943 ft 166 kts 227°
2026-05-04 18:32 55.68928 12.76663 1699 ft 162 kts 227°
2026-05-04 18:32 55.68082 12.75339 1492 ft 164 kts 226°
2026-05-04 18:32 55.67228 12.74009 1270 ft 164 kts 226°
2026-05-04 18:32 55.66379 12.72692 1052 ft 161 kts 226°
2026-05-04 18:33 55.65534 12.71386 836 ft 162 kts 226°
2026-05-04 18:33 55.64702 12.70101 615 ft 154 kts 225°